When you browse on this site, cookies collect data to enhance your experience and personalize the content and advertising you see.
Visit our Privacy Policy to learn more. By continuing to use the site, you agree to this use of cookies and data.
  • în România
  • Lista ţărilor
  • Pe 7 zile
  • Temperatura apei
  • Hartă satelitară
  • Meteo pe hartă
  • Widget-uri
  • user-avatar
    Intrare

    Meteo pe oră la Beclean

    Astăzi, 18 Noiembrie, Duminică

    Timp Temperatura Precipitaţii Vânt Presiune Umiditate
    00:00 +1°C° 0 mm 1 m/s 741 mmHg 75%
    01:00 +1°C° 0 mm 1 m/s 740 mmHg 76%
    02:00 +1°C° 0 mm 1 m/s 740 mmHg 79%
    03:00 0°C° 0 mm 1 m/s 740 mmHg 80%
    04:00 0°C° 0 mm 1 m/s 739 mmHg 81%
    05:00 0°C° 0 mm 1 m/s 739 mmHg 82%
    06:00 0°C° 0 mm 1 m/s 739 mmHg 82%
    07:00 0°C° 0 mm 1 m/s 738 mmHg 83%
    08:00 0°C° 0 mm 1 m/s 738 mmHg 83%
    09:00 +2°C° 0 mm 1 m/s 737 mmHg 75%
    10:00 +3°C° 0 mm 1 m/s 737 mmHg 66%
    11:00 +5°C° 0 mm 1 m/s 736 mmHg 58%
    12:00 +6°C° 0 mm 1 m/s 736 mmHg 56%
    13:00 +6°C° 0 mm 1 m/s 735 mmHg 54%
    14:00 +7°C° 0 mm 1 m/s 734 mmHg 52%
    15:00 +6°C° 0 mm 1 m/s 734 mmHg 58%
    16:00 +3°C° 0 mm 0 m/s 733 mmHg 63%
    17:00 +2°C° 0 mm 0 m/s 733 mmHg 69%
    18:00 +2°C° 0 mm 0 m/s 733 mmHg 71%
    19:00 +2°C° 0 mm 1 m/s 732 mmHg 72%
    20:00 +2°C° 0 mm 1 m/s 732 mmHg 74%
    21:00 +2°C° 0 mm 1 m/s 732 mmHg 74%
    22:00 +2°C° 0 mm 1 m/s 732 mmHg 75%
    23:00 +2°C° 0 mm 1 m/s 731 mmHg 75%

    Mâine, 19 Noiembrie, Luni

    Timp Temperatura Precipitaţii Vânt Presiune Umiditate
    00:00 +2°C° 0 mm 1 m/s 731 mmHg 75%
    01:00 +2°C° 0 mm 1 m/s 731 mmHg 74%
    02:00 +3°C° 0 mm 1 m/s 730 mmHg 74%
    03:00 +3°C° 0.1 mm 1 m/s 730 mmHg 74%
    04:00 +3°C° 0.1 mm 1 m/s 730 mmHg 75%
    05:00 +3°C° 0.1 mm 1 m/s 730 mmHg 75%
    06:00 +3°C° 0.2 mm 1 m/s 730 mmHg 76%
    07:00 +3°C° 0.2 mm 1 m/s 730 mmHg 77%
    08:00 +3°C° 0.2 mm 1 m/s 729 mmHg 78%
    09:00 +3°C° 0.4 mm 1 m/s 730 mmHg 79%
    10:00 +4°C° 0.4 mm 1 m/s 730 mmHg 79%
    11:00 +4°C° 0.4 mm 1 m/s 730 mmHg 79%
    12:00 +4°C° 0.5 mm 1 m/s 730 mmHg 80%
    13:00 +4°C° 0.5 mm 1 m/s 730 mmHg 82%
    14:00 +4°C° 0.5 mm 1 m/s 730 mmHg 83%
    15:00 +4°C° 0.3 mm 1 m/s 731 mmHg 86%
    16:00 +3°C° 0.3 mm 1 m/s 731 mmHg 88%
    17:00 +3°C° 0.3 mm 1 m/s 731 mmHg 91%
    18:00 +3°C° 0.1 mm 1 m/s 731 mmHg 91%
    19:00 +3°C° 0.1 mm 1 m/s 732 mmHg 91%
    20:00 +2°C° 0.1 mm 1 m/s 732 mmHg 91%
    21:00 +2°C° 0 mm 1 m/s 732 mmHg 91%
    22:00 +2°C° 0 mm 1 m/s 733 mmHg 91%
    23:00 +2°C° 0 mm 1 m/s 733 mmHg 91%

    Poimâine, 20 Noiembrie, Marţi

    Timp Temperatura Precipitaţii Vânt Presiune Umiditate
    00:00 +1°C° 0 mm 1 m/s 733 mmHg 91%
    01:00 +1°C° 0 mm 1 m/s 733 mmHg 91%
    02:00 0°C° 0 mm 1 m/s 733 mmHg 91%
    03:00 0°C° 0 mm 1 m/s 733 mmHg 90%
    04:00 0°C° 0 mm 1 m/s 733 mmHg 90%
    05:00 0°C° 0 mm 1 m/s 733 mmHg 89%
    06:00 -2°C° 0 mm 2 m/s 733 mmHg 89%
    07:00 -2°C° 0 mm 2 m/s 733 mmHg 88%
    08:00 -2°C° 0 mm 2 m/s 733 mmHg 88%
    09:00 -1°C° 0 mm 2 m/s 733 mmHg 83%
    10:00 +2°C° 0 mm 2 m/s 733 mmHg 78%
    11:00 +4°C° 0 mm 2 m/s 733 mmHg 73%
    12:00 +5°C° 0 mm 2 m/s 733 mmHg 72%
    13:00 +6°C° 0 mm 2 m/s 732 mmHg 71%
    14:00 +7°C° 0 mm 2 m/s 732 mmHg 70%
    15:00 +6°C° 0 mm 2 m/s 732 mmHg 74%
    16:00 +5°C° 0 mm 2 m/s 732 mmHg 78%
    17:00 +4°C° 0 mm 2 m/s 731 mmHg 82%
    18:00 +3°C° 0 mm 2 m/s 731 mmHg 82%
    19:00 +3°C° 0 mm 2 m/s 731 mmHg 83%
    20:00 +3°C° 0 mm 2 m/s 731 mmHg 84%
    21:00 +3°C° 0.1 mm 2 m/s 731 mmHg 83%
    22:00 +3°C° 0.1 mm 2 m/s 731 mmHg 82%
    23:00 +3°C° 0.1 mm 2 m/s 731 mmHg 81%

    21 Noiembrie, Miercuri

    Timp Temperatura Precipitaţii Vânt Presiune Umiditate
    00:00 +3°C° 0 mm 2 m/s 731 mmHg 80%
    01:00 +3°C° 0 mm 2 m/s 731 mmHg 80%
    02:00 +3°C° 0 mm 2 m/s 731 mmHg 79%
    03:00 +3°C° 0 mm 2 m/s 730 mmHg 79%
    04:00 +3°C° 0 mm 2 m/s 730 mmHg 80%
    05:00 +3°C° 0 mm 2 m/s 730 mmHg 81%
    06:00 +3°C° 0 mm 2 m/s 730 mmHg 81%
    07:00 +3°C° 0 mm 2 m/s 730 mmHg 82%
    08:00 +3°C° 0 mm 2 m/s 730 mmHg 82%
    09:00 +5°C° 0 mm 2 m/s 730 mmHg 79%
    10:00 +6°C° 0 mm 2 m/s 730 mmHg 76%
    11:00 +7°C° 0 mm 2 m/s 730 mmHg 73%
    12:00 +8°C° 0 mm 2 m/s 730 mmHg 72%
    13:00 +8°C° 0 mm 2 m/s 730 mmHg 72%
    14:00 +9°C° 0 mm 2 m/s 730 mmHg 72%
    15:00 +8°C° 0.1 mm 2 m/s 730 mmHg 76%
    16:00 +7°C° 0.1 mm 2 m/s 730 mmHg 80%
    17:00 +6°C° 0.1 mm 2 m/s 730 mmHg 84%
    18:00 +6°C° 0.1 mm 2 m/s 730 mmHg 85%
    19:00 +6°C° 0.1 mm 2 m/s 730 mmHg 85%
    20:00 +5°C° 0.1 mm 2 m/s 730 mmHg 86%
    21:00 +5°C° 0.2 mm 2 m/s 731 mmHg 86%
    22:00 +5°C° 0.2 mm 2 m/s 731 mmHg 85%
    23:00 +5°C° 0.2 mm 2 m/s 731 mmHg 85%

    22 Noiembrie, Joi

    Timp Temperatura Precipitaţii Vânt Presiune Umiditate
    00:00 +6°C° 0.4 mm 1 m/s 731 mmHg 85%
    01:00 +6°C° 0.4 mm 1 m/s 731 mmHg 86%
    02:00 +6°C° 0.4 mm 1 m/s 731 mmHg 86%
    03:00 +6°C° 0.3 mm 1 m/s 732 mmHg 86%
    04:00 +6°C° 0.3 mm 1 m/s 732 mmHg 86%
    05:00 +6°C° 0.3 mm 1 m/s 732 mmHg 86%
    06:00 +5°C° 0.2 mm 1 m/s 732 mmHg 86%
    07:00 +5°C° 0.2 mm 1 m/s 732 mmHg 86%
    08:00 +5°C° 0.2 mm 1 m/s 733 mmHg 86%
    09:00 +6°C° 0.3 mm 1 m/s 733 mmHg 84%
    10:00 +6°C° 0.3 mm 1 m/s 733 mmHg 82%
    11:00 +7°C° 0.3 mm 1 m/s 734 mmHg 80%
    12:00 +7°C° 0.3 mm 1 m/s 734 mmHg 79%
    13:00 +8°C° 0.3 mm 1 m/s 734 mmHg 78%
    14:00 +8°C° 0.3 mm 1 m/s 734 mmHg 77%
    15:00 +8°C° 0.1 mm 1 m/s 734 mmHg 79%
    16:00 +7°C° 0.1 mm 1 m/s 734 mmHg 82%
    17:00 +7°C° 0.1 mm 1 m/s 735 mmHg 85%
    18:00 +6°C° 0.1 mm 1 m/s 735 mmHg 85%
    19:00 +6°C° 0.1 mm 1 m/s 736 mmHg 86%
    20:00 +6°C° 0.1 mm 1 m/s 736 mmHg 86%
    21:00 +6°C° 0.1 mm 1 m/s 736 mmHg 86%
    22:00 +6°C° 0.1 mm 1 m/s 736 mmHg 86%
    23:00 +6°C° 0.1 mm 1 m/s 737 mmHg 86%

    23 Noiembrie, Vineri

    Timp Temperatura Precipitaţii Vânt Presiune Umiditate
    00:00 +6°C° 0.1 mm 1 m/s 737 mmHg 86%
    01:00 +5°C° 0.1 mm 1 m/s 737 mmHg 86%
    02:00 +5°C° 0.1 mm 1 m/s 737 mmHg 86%
    03:00 +5°C° 0 mm 1 m/s 737 mmHg 86%
    04:00 +5°C° 0 mm 1 m/s 737 mmHg 86%
    05:00 +5°C° 0 mm 1 m/s 737 mmHg 87%
    06:00 +5°C° 0 mm 1 m/s 738 mmHg 86%
    07:00 +5°C° 0 mm 1 m/s 738 mmHg 86%
    08:00 +5°C° 0 mm 1 m/s 738 mmHg 85%
    09:00 +6°C° 0 mm 1 m/s 738 mmHg 81%
    10:00 +7°C° 0 mm 1 m/s 738 mmHg 76%
    11:00 +8°C° 0 mm 1 m/s 739 mmHg 71%
    12:00 +9°C° 0 mm 1 m/s 738 mmHg 69%
    13:00 +9°C° 0 mm 1 m/s 738 mmHg 68%
    14:00 +10°C° 0 mm 1 m/s 738 mmHg 66%
    15:00 +9°C° 0 mm 1 m/s 738 mmHg 70%
    16:00 +8°C° 0 mm 1 m/s 738 mmHg 75%
    17:00 +6°C° 0 mm 0 m/s 738 mmHg 79%
    18:00 +5°C° 0 mm 0 m/s 738 mmHg 81%
    19:00 +5°C° 0 mm 0 m/s 738 mmHg 82%
    20:00 +6°C° 0 mm 1 m/s 738 mmHg 83%
    21:00 +5°C° 0 mm 1 m/s 737 mmHg 84%
    22:00 +5°C° 0 mm 1 m/s 737 mmHg 84%
    23:00 +5°C° 0 mm 1 m/s 737 mmHg 85%
    Arată mai mult